LEMUR-2-LA

Last updated on Sun Mar 12 2017 00:15:04 GMT+0000 (Coordinated Universal Time)

1 42059U 98067LA 17070.48343885 .00012186 00000-0 18546-3 0 9993 2 42059 51.6442 165.3082 0009144 295.1425 64.8609 15.54913905 796
UTC large
Height (km)
Speed (km/s)
/
Latitude / Longitude
Inclination (degrees)
Orbital Period (minutes)
Azimuth
Elevation
Range (km)
Doppler Factor

Next 0 passes for location: London (51.5072 / 0.1276)

Sorry there are no passes over London.